User: anonymous   Login
Location: Caltech
(34.1382°N, 118.1253°W)
Time: 07:51:24
(UTC-07:00)
Language:

ASTRO E2 - Orbit

View from above orbital plane
View from above orbital plane
View from above satellite
View from above satellite

Ground track
Ground track

The orbit data is extracted from the following two-line orbital elements,

1 28773U 05025A   18173.10354155  .00000938  00000-0  42483-4 0  9998
2 28773  31.3836  56.0728 0004413 103.9198 256.1940 15.16577811713543
Epoch (UTC): 22 June 2018 02:29:05
Eccentricity: 0.0004413
inclination: 31.3836°
perigee height: 513 km
apogee height: 519 km
right ascension of ascending node: 56.0728°
argument of perigee: 103.9198°
revolutions per day: 15.16577811
mean anomaly at epoch: 256.1940°
orbit number at epoch: 71354

The dashed part of the orbit path shows where the satellite is in the earth's shadow,  

DLR